Theta_e
333 333 331 330 333 334 333 334 334 333 333 334 334 333 330 324 320 319 320 321 322 323 328 332 333 334 334 333 335 334 333 332 330 329 329 328 328 328 327 327 327 327 327
337 337 336 336 335 333 333 335 335 334 334 334 335 335 334 332 330 328 328 326 325 324 325 327 328 332 333 334 334 335 335 335 335 334 333 332 331 331 330 330 330 329 329
335 336 337 337 337 338 338 337 335 336 335 335 335 335 335 334 334 334 332 331 331 330 329 329 329 330 329 330 330 331 331 333 334 335 335 334 334 333 332 332 331 331 331
329 331 332 333 333 336 336 336 336 336 336 336 337 337 336 335 334 335 335 334 334 333 333 331 331 330 330 330 330 331 331 331 330 330 333 334 334 334 333 333 332 332 332
322 326 325 326 327 327 330 330 332 333 334 334 334 335 336 336 336 336 335 335 335 334 334 333 333 332 332 332 331 330 330 330 331 331 331 330 329 330 331 331 331 332 332
311 313 315 315 319 318 320 322 325 327 328 331 329 333 334 334 335 335 335 335 335 334 334 333 333 332 331 331 331 331 331 329 330 330 331 331 331 330 329 329 328 329 330
302 303 303 305 306 307 307 309 312 317 321 320 327 326 330 333 334 334 334 334 334 333 333 332 331 331 330 330 330 329 329 329 328 329 330 330 330 331 331 331 330 330 330
298 299 299 299 300 301 301 304 305 312 313 315 315 319 332 332 329 323 328 332 333 333 333 333 332 330 330 330 329 328 328 328 328 328 328 329 329 330 330 330 329 330 330
297 296 297 297 298 298 298 299 301 304 310 309 311 312 317 322 315 324 322 326 326 325 327 329 330 331 331 332 331 330 328 328 328 327 327 328 329 329 329 329 329 329 329
296 295 295 296 296 297 297 297 297 301 300 307 307 306 306 309 315 319 313 315 315 315 316 318 326 328 329 330 331 332 331 331 330 329 328 326 327 327 327 328 329 329 329
295 295 295 295 296 296 297 296 296 297 298 302 305 303 304 305 308 305 309 307 308 309 310 317 315 318 326 330 329 331 331 331 331 331 330 329 328 328 328 328 328 330 329
294 294 294 295 295 295 296 296 296 297 297 301 302 300 301 301 300 302 303 303 305 304 305 309 313 318 319 321 324 327 328 329 329 329 329 329 329 329 329 329 329 329 329
294 294 294 294 294 294 294 295 296 297 297 298 298 297 297 295 298 299 297 298 299 299 303 307 310 311 310 319 325 324 324 325 326 327 327 326 327 328 329 329 329 330 330
293 293 293 293 293 293 293 294 295 296 296 296 296 296 295 296 296 295 295 295 297 299 299 301 305 308 312 311 310 314 315 315 318 322 324 326 325 325 325 325 328 330 331
292 292 292 292 292 293 293 294 293 293 293 292 293 293 294 294 294 294 294 295 296 298 298 299 301 306 305 305 307 311 314 312 313 316 319 321 323 324 324 323 323 328 329
292 292 292 292 292 292 292 292 292 292 292 292 292 292 293 293 294 294 294 294 295 296 298 297 300 299 299 301 306 310 309 310 314 317 320 320 321 322 323 323 324 323 329
291 291 291 291 291 292 292 292 291 291 290 290 290 291 291 292 293 294 293 294 294 294 295 295 297 298 299 300 302 304 306 308 311 313 313 314 322 324 325 323 323 323 327
291 291 291 290 291 291 292 289 289 289 289 289 290 290 290 291 292 293 294 294 293 293 294 296 295 295 295 297 300 302 306 306 309 311 311 309 310 313 323 324 325 325 326
291 291 291 290 290 291 290 288 288 288 288 288 289 290 290 290 291 291 292 293 293 294 294 294 294 293 294 295 299 299 301 304 307 308 307 306 310 316 318 323 325 325 325
290 290 289 290 289 291 288 288 288 287 288 288 288 289 289 289 290 290 291 291 292 292 293 294 293 292 293 293 296 296 296 297 299 300 301 305 309 308 309 313 320 325 325
289 289 289 288 289 289 288 287 287 287 287 288 288 288 288 288 289 289 290 290 290 290 291 292 292 293 293 293 293 293 294 295 295 296 299 304 303 304 307 310 314 318 321
289 289 288 288 288 288 287 287 286 287 287 287 287 287 287 288 288 288 288 288 288 289 290 291 292 293 292 293 293 293 293 293 294 294 296 295 296 300 306 309 312 315 318
289 289 288 288 288 287 286 286 286 286 286 286 286 286 287 287 287 287 287 287 288 289 290 290 290 291 292 292 292 292 292 292 292 292 292 293 295 300 306 308 310 311 313
288 288 288 287 286 286 286 286 285 285 286 285 286 286 286 286 286 286 286 287 288 288 289 289 289 290 290 290 290 291 291 291 290 290 291 294 300 303 304 308 308 307 307
288 287 287 286 286 285 285 285 285 285 285 285 285 285 285 285 285 286 286 286 286 287 287 288 288 289 290 290 291 289 290 290 291 291 292 295 298 301 308 309 307 307 306
286 286 287 286 285 285 284 284 284 284 284 284 284 284 284 284 284 285 285 285 286 286 287 287 288 289 290 291 291 291 290 291 291 292 297 299 301 300 300 308 308 307 306
Wind_Speed
11 12 12 13 14 14 15 14 15 17 18 19 21 22 23 24 25 27 28 28 28 27 26 25 25 25 29 31 31 30 30 31 32 33 32 32 31 30 30 29 29 28 27
9 12 14 16 18 19 21 23 24 24 24 24 25 25 26 27 27 27 27 28 29 30 30 30 30 31 31 32 34 35 35 35 35 35 35 35 35 35 34 34 33 33 32
6 8 10 12 14 16 20 23 25 26 29 31 32 31 29 28 29 30 31 32 32 32 32 32 33 34 35 37 39 40 41 41 41 40 39 38 38 38 37 37 36 36 36
10 9 8 8 11 11 12 14 18 22 26 29 32 32 34 34 34 33 33 34 35 36 37 37 37 37 38 39 40 42 44 45 45 45 45 44 43 43 41 41 40 39 38
16 13 14 14 13 13 11 12 12 14 19 23 26 29 31 33 34 33 36 37 37 37 38 39 40 41 42 43 42 43 44 45 46 47 47 47 48 47 46 46 44 42 41
19 18 18 19 17 18 17 16 15 14 16 15 21 25 26 31 32 35 35 36 38 37 38 40 42 43 43 44 45 45 45 44 45 46 48 48 48 47 47 46 45 44 42
25 25 24 22 21 20 22 22 22 19 14 24 14 19 21 25 27 27 28 32 35 35 36 36 38 40 42 43 42 41 41 42 44 46 46 47 49 48 48 47 46 46 44
27 26 26 25 24 23 23 24 25 19 14 22 13 15 5 9 5 27 26 24 29 34 32 35 39 39 40 43 43 44 44 41 40 41 43 46 47 47 49 49 48 47 45
27 27 25 25 24 25 25 24 23 23 15 15 20 12 5 4 20 11 31 20 26 24 27 30 35 38 41 42 45 45 45 43 43 42 41 41 43 44 46 48 49 48 46
26 26 25 24 24 24 25 25 25 20 21 14 12 15 9 11 4 6 19 29 27 34 33 37 30 32 36 41 41 43 45 46 48 47 44 43 42 43 43 43 46 46 46
25 25 24 24 24 23 23 23 24 22 21 13 13 17 13 14 7 9 11 18 34 27 30 23 40 41 35 38 42 43 44 44 46 46 47 44 43 43 43 44 43 43 44
24 24 23 23 22 22 22 23 21 21 22 16 12 15 14 10 18 12 10 17 22 31 34 33 27 28 32 35 36 39 41 45 43 47 47 48 46 44 44 42 41 41 42
24 24 22 22 22 21 20 20 20 21 22 18 15 15 14 20 16 15 20 19 13 28 24 30 26 31 39 33 28 29 29 32 35 38 41 42 43 41 41 42 42 41 41
21 21 21 21 22 21 20 19 20 20 17 17 17 19 23 15 16 17 19 21 16 13 27 26 31 32 27 40 46 41 43 45 48 43 36 30 34 38 39 41 41 40 38
19 20 22 22 23 23 21 19 20 21 21 23 21 20 20 19 19 20 20 18 16 13 17 26 29 30 36 41 43 42 39 41 45 44 50 50 51 55 56 46 40 45 44
20 22 23 23 22 21 20 20 20 21 22 22 20 22 22 21 21 20 21 22 22 22 14 28 28 37 44 44 44 35 42 45 41 41 45 47 49 52 50 52 49 46 47
20 21 22 22 22 21 20 22 23 22 23 23 23 21 22 24 23 24 23 24 23 25 18 37 33 29 35 41 44 48 45 45 43 41 40 42 47 52 51 52 52 49 47
19 20 22 25 23 22 21 28 26 26 25 25 23 22 22 24 26 24 25 26 28 29 30 31 33 35 35 37 40 44 40 39 41 40 38 42 46 45 49 57 58 52 49
19 20 21 26 23 21 25 28 26 27 27 24 25 25 25 26 26 28 29 29 29 29 30 33 34 36 36 35 35 40 38 41 36 31 36 41 38 35 39 45 57 53 55
21 24 24 21 23 18 25 27 29 29 25 25 25 25 26 26 29 31 30 31 30 33 32 29 33 33 32 33 32 31 40 40 41 38 42 38 35 40 39 38 40 50 49
21 20 21 22 21 17 26 28 31 27 27 26 27 26 26 28 27 31 32 32 34 33 32 31 30 30 30 29 28 31 31 39 43 37 35 33 32 39 40 43 38 35 35
19 20 20 21 23 18 24 28 34 27 26 26 28 30 30 28 33 32 33 36 34 35 34 30 31 27 34 32 33 29 29 27 18 27 28 43 38 43 38 35 42 42 42
17 18 21 22 20 19 23 29 34 27 26 28 29 30 30 30 31 35 38 35 31 30 30 35 35 34 37 37 38 35 30 30 31 38 33 35 38 36 35 38 37 34 38
18 18 18 22 20 19 23 29 33 27 25 29 29 30 30 33 33 41 40 36 33 31 31 33 35 41 41 43 41 41 38 35 35 37 31 13 29 31 38 33 20 26 29
16 17 15 21 19 19 22 28 32 28 25 29 30 29 30 33 39 41 39 37 35 34 37 37 38 39 41 41 41 39 30 23 14 27 28 22 29 25 18 21 20 27 31
13 15 14 16 17 19 21 27 28 23 27 29 31 31 33 36 41 41 38 35 35 39 42 40 38 37 36 37 37 32 31 20 18 9 13 7 18 20 4 6 16 19 23
Wind_Direction
303 302 299 292 286 283 281 283 286 287 287 290 292 292 294 293 289 288 288 288 287 285 283 282 281 280 276 275 276 275 274 273 273 273 273 273 273 272 272 272 271 271 270
304 300 301 300 296 294 293 291 288 288 287 288 290 291 291 292 292 291 291 290 288 285 284 282 280 278 277 276 276 276 276 276 275 275 275 274 274 274 274 273 272 272 271
312 308 308 311 309 304 296 295 293 294 290 288 287 286 286 288 290 291 292 291 290 288 286 284 283 280 278 276 276 277 277 277 276 276 276 276 276 276 275 274 273 272 271
40 41 23 359 339 327 326 312 302 299 296 296 293 290 291 290 290 289 289 289 290 290 288 285 284 283 282 282 280 279 278 278 277 276 275 275 275 275 275 275 274 273 271
45 40 30 19 16 15 3 352 338 334 315 308 308 302 296 290 288 290 290 287 286 286 285 286 286 285 283 282 283 283 281 279 278 278 277 275 274 274 274 275 275 275 274
47 44 43 34 26 19 11 4 1 353 345 347 326 309 304 298 297 290 288 290 288 287 286 287 287 286 285 284 283 284 282 280 278 277 277 277 277 276 276 275 275 275 275
52 48 46 40 35 33 25 21 10 5 6 353 348 333 300 291 289 293 297 291 288 293 293 292 292 292 289 288 287 287 288 286 281 279 279 276 276 277 277 277 277 276 276
48 45 42 39 35 32 28 28 26 16 7 15 350 299 317 318 330 323 310 302 298 296 295 297 296 293 292 291 288 290 290 287 286 286 283 280 278 278 277 278 278 276 276
49 46 43 40 37 33 28 25 23 26 357 5 30 34 349 336 329 320 317 320 334 332 325 313 301 295 293 292 291 289 288 286 286 286 287 285 280 279 279 279 278 276 275
46 42 39 38 37 34 31 27 24 22 17 0 12 4 355 317 322 319 328 313 320 322 322 313 314 309 299 293 286 286 287 289 290 289 287 283 282 282 283 282 279 277 275
42 36 35 34 33 31 28 24 21 20 20 11 0 351 344 332 311 310 309 317 314 313 313 306 306 312 308 297 289 289 286 287 288 288 288 287 287 286 285 285 286 284 279
36 32 30 29 29 25 22 18 15 17 17 17 10 355 353 354 316 312 308 308 303 307 308 303 310 309 312 309 304 300 297 290 288 288 288 288 288 289 289 288 286 285 285
30 24 25 26 25 22 19 16 15 13 13 10 1 350 333 323 310 320 317 310 301 306 303 305 305 308 313 307 308 310 308 304 293 285 284 287 288 290 291 292 289 286 285
27 23 26 28 25 24 23 23 26 18 2 356 341 334 330 327 317 313 311 313 313 308 309 303 311 307 303 316 314 312 308 305 296 289 288 281 287 293 292 292 288 286 283
32 33 35 35 34 33 30 25 14 6 360 354 350 340 331 323 316 311 308 304 301 307 304 309 306 310 314 310 305 304 303 306 303 296 287 284 281 282 282 284 288 284 281
39 37 36 34 34 35 32 20 4 354 347 342 337 332 329 321 320 316 311 304 295 295 299 306 309 307 305 303 305 306 308 308 307 304 297 290 285 281 277 272 279 284 276
41 40 38 35 35 33 28 7 0 351 345 339 338 335 331 328 317 318 316 310 302 302 296 302 301 312 312 310 307 307 304 302 302 304 305 306 293 280 274 273 272 272 273
43 42 40 36 34 32 22 6 356 349 344 339 336 335 333 333 324 319 318 311 307 303 299 298 309 311 309 305 303 303 299 298 294 296 305 312 305 300 279 272 270 269 268
41 39 38 33 31 31 10 3 355 347 345 346 344 340 337 335 330 326 321 314 310 304 302 299 303 309 306 306 304 305 308 309 305 308 310 310 311 312 307 285 274 271 272
44 44 39 28 33 31 11 4 356 351 350 345 345 340 336 334 330 329 328 322 319 313 307 303 301 303 304 309 307 313 311 305 304 310 309 307 305 316 315 317 298 274 276
48 46 37 33 33 24 11 6 359 357 353 349 345 344 341 338 334 331 329 326 322 314 307 304 300 301 303 305 304 304 299 306 302 304 305 305 320 315 312 318 307 291 280
46 41 39 30 28 22 8 3 1 355 352 350 347 346 343 340 338 335 331 327 321 308 304 302 300 300 297 298 297 294 295 297 298 308 310 303 307 305 304 308 316 305 289
39 37 30 22 20 16 7 3 1 356 349 349 348 344 340 339 339 337 333 329 323 318 309 300 296 297 297 295 296 293 288 286 289 295 295 292 297 291 300 304 315 307 297
37 33 24 17 21 15 10 6 359 355 350 349 346 344 340 338 341 342 336 332 330 326 322 313 302 297 294 295 292 288 288 286 285 288 284 277 291 289 298 307 338 351 335
34 29 27 13 17 14 9 7 1 354 349 345 343 344 345 342 342 343 340 335 331 330 330 326 321 317 316 315 309 293 285 282 284 291 288 271 274 281 298 320 7 15 9
32 23 31 14 20 11 8 6 2 356 348 345 344 344 346 344 343 344 342 338 334 332 329 332 330 328 328 325 323 305 281 273 276 293 299 333 319 315 298 278 336 342 6